Location: Miles
(41.4492°N, 81.6087°W)
Time: 01:22:51
(UTC+00:00)

Courier 1B Rocket - Pass Details

Date: 14 September 2024
Orbit: 920 x 1201 km, 28.3° (Epoch: 15 October)

Event Time Altitude Azimuth Distance (km) Brightness Sun altitude
Rises 01:16:53 0° 256° (WSW) 3,901 9.0 -18.8°
Reaches altitude 10° 01:20:08 10° 243° (WSW) 2,988 8.1 -19.3°
Maximum altitude 01:25:52 25° 192° (SSW) 2,161 6.7 -20.3°
Enters shadow 01:28:48 20° 161° (SSE) 2,437 6.7 -20.8°
Drops below altitude 10° 01:31:49 10° 141° (SE) 3,103 - -21.3°
Sets 01:35:17 0° 129° (SE) 4,082 - -21.9°
